Time,TemperatureF,DewpointF,PressureIn,WindDirection,WindDirectionDegrees,WindSpeedMPH,WindSpeedGustMPH,Humidity,HourlyPrecipIn,Conditions,Clouds,dailyrainin,SoftwareType,DateUTC
2013-07-10 00:01:00,73.9,42.2,30.02,North,0,0.0,0.0,32,0.00,CLR,SCT,0.00,WeatherDisplay:10.37,2013-07-10 07:01:00,
2013-07-10 00:06:00,73.4,41.7,30.02,North,0,0.0,0.0,32,0.00,CLR,SCT,0.00,WeatherDisplay:10.37,2013-07-10 07:06:00,
2013-07-10 00:11:00,73.0,42.2,30.02,North,0,3.5,3.5,33,0.00,CLR,SCT,0.00,WeatherDisplay:10.37,2013-07-10 07:11:00,
2013-07-10 00:16:00,72.9,42.1,30.02,North,0,2.3,2.3,33,0.00,CLR,SCT,0.00,WeatherDisplay:10.37,2013-07-10 07:16:00,
2013-07-10 00:21:00,72.7,41.9,30.02,North,0,0.0,0.0,33,0.00,CLR,SCT,0.00,WeatherDisplay:10.37,2013-07-10 07:21:00,
2013-07-10 00:26:00,72.3,41.6,30.02,North,0,0.0,0.0,33,0.00,CLR,SCT,0.00,WeatherDisplay:10.37,2013-07-10 07:26:00,
2013-07-10 00:31:00,72.0,41.3,30.02,North,0,0.0,0.0,33,0.00,CLR,SCT,0.00,WeatherDisplay:10.37,2013-07-10 07:31:00,
2013-07-10 00:37:00,71.4,40.8,30.02,North,0,0.0,0.0,33,0.00,CLR,SCT,0.00,WeatherDisplay:10.37,2013-07-10 07:37:00,
2013-07-10 00:42:00,71.2,41.4,30.02,North,0,0.0,0.0,34,0.00,CLR,SCT,0.00,WeatherDisplay:10.37,2013-07-10 07:42:00,
2013-07-10 00:47:00,71.2,41.4,30.02,North,0,3.5,3.5,34,0.00,CLR,SCT,0.00,WeatherDisplay:10.37,2013-07-10 07:47:00,
2013-07-10 00:52:00,71.1,40.5,30.02,North,0,2.3,2.3,33,0.00,CLR,SCT,0.00,WeatherDisplay:10.37,2013-07-10 07:52:00,
2013-07-10 00:57:00,70.7,40.9,30.02,North,0,3.5,3.5,34,0.00,CLR,SCT,0.00,WeatherDisplay:10.37,2013-07-10 07:57:00,
2013-07-10 01:02:00,70.0,40.3,30.02,North,0,3.5,3.5,34,0.00,CLR,SCT,0.00,WeatherDisplay:10.37,2013-07-10 08:02:00,
2013-07-10 01:07:00,69.4,40.6,30.02,North,0,0.0,0.0,35,0.00,CLR,SCT,0.00,WeatherDisplay:10.37,2013-07-10 08:07:00,
2013-07-10 01:12:00,68.9,40.8,30.02,North,0,0.0,0.0,36,0.00,CLR,SCT,0.00,WeatherDisplay:10.37,2013-07-10 08:12:00,
2013-07-10 01:17:00,68.7,40.7,30.02,North,0,0.0,0.0,36,0.00,CLR,SCT,0.00,WeatherDisplay:10.37,2013-07-10 08:17:00,
2013-07-10 01:23:00,68.4,40.4,30.02,North,0,0.0,0.0,36,0.00,CLR,SCT,0.00,WeatherDisplay:10.37,2013-07-10 08:23:00,
2013-07-10 01:28:00,68.2,40.9,29.99,North,0,0.0,0.0,37,0.00,CLR,SCT,0.00,WeatherDisplay:10.37,2013-07-10 08:28:00,
2013-07-10 01:33:00,67.8,41.9,29.99,North,0,0.0,0.0,39,0.00,CLR,SCT,0.00,WeatherDisplay:10.37,2013-07-10 08:33:00,
2013-07-10 01:38:00,67.3,41.5,29.99,North,0,0.0,0.0,39,0.00,CLR,SCT,0.00,WeatherDisplay:10.37,2013-07-10 08:38:00,
2013-07-10 01:43:00,67.1,41.3,30.02,North,0,0.0,0.0,39,0.00,CLR,SCT,0.00,WeatherDisplay:10.37,2013-07-10 08:43:00,
2013-07-10 01:48:00,66.7,41.0,30.02,North,0,0.0,0.0,39,0.00,CLR,SCT,0.00,WeatherDisplay:10.37,2013-07-10 08:48:00,
2013-07-10 01:53:00,66.2,41.8,30.02,North,0,0.0,0.0,41,0.00,CLR,SCT,0.00,WeatherDisplay:10.37,2013-07-10 08:53:00,
2013-07-10 01:58:00,65.7,41.9,30.02,North,0,0.0,0.0,42,0.00,CLR,SCT,0.00,WeatherDisplay:10.37,2013-07-10 08:58:00,
2013-07-10 02:03:00,65.5,41.1,30.02,North,0,0.0,0.0,41,0.00,CLR,SCT,0.00,WeatherDisplay:10.37,2013-07-10 09:03:00,
2013-07-10 02:08:00,65.5,39.9,30.02,North,0,0.0,0.0,39,0.00,CLR,SCT,0.00,WeatherDisplay:10.37,2013-07-10 09:08:00,
2013-07-10 02:13:00,65.3,39.7,30.02,North,0,0.0,0.0,39,0.00,CLR,SCT,0.00,WeatherDisplay:10.37,2013-07-10 09:13:00,
2013-07-10 02:18:00,65.1,39.5,30.02,North,0,0.0,0.0,39,0.00,CLR,SCT,0.00,WeatherDisplay:10.37,2013-07-10 09:18:00,
2013-07-10 02:23:00,64.8,39.9,30.02,North,0,0.0,0.0,40,0.00,CLR,SCT,0.00,WeatherDisplay:10.37,2013-07-10 09:23:00,
2013-07-10 02:29:00,64.8,39.9,30.02,North,0,0.0,0.0,40,0.00,CLR,SCT,0.00,WeatherDisplay:10.37,2013-07-10 09:29:00,
2013-07-10 02:34:00,64.6,39.7,30.02,North,0,0.0,0.0,40,0.00,CLR,SCT,0.00,WeatherDisplay:10.37,2013-07-10 09:34:00,
2013-07-10 02:39:00,64.2,41.2,30.02,North,0,0.0,0.0,43,0.00,CLR,SCT,0.00,WeatherDisplay:10.37,2013-07-10 09:39:00,
2013-07-10 02:44:00,63.7,41.3,30.02,North,0,0.0,0.0,44,0.00,CLR,SCT,0.00,WeatherDisplay:10.37,2013-07-10 09:44:00,
2013-07-10 02:49:00,63.3,40.4,30.02,North,0,0.0,0.0,43,0.00,CLR,SCT,0.00,WeatherDisplay:10.37,2013-07-10 09:49:00,
2013-07-10 02:54:00,63.0,41.3,30.02,North,0,0.0,0.0,45,0.00,CLR,SCT,0.00,WeatherDisplay:10.37,2013-07-10 09:54:00,
2013-07-10 02:59:00,62.6,41.5,30.02,North,0,4.6,4.6,46,0.00,CLR,SCT,0.00,WeatherDisplay:10.37,2013-07-10 09:59:00,
2013-07-10 03:05:00,62.1,41.6,30.02,North,0,3.6,3.6,47,0.00,CLR,SCT,0.00,WeatherDisplay:10.37,2013-07-10 10:05:00,
2013-07-10 03:10:00,61.9,40.9,30.02,North,0,3.6,3.6,46,0.00,CLR,SCT,0.00,WeatherDisplay:10.37,2013-07-10 10:10:00,
2013-07-10 03:15:00,61.9,40.9,30.02,North,0,4.6,4.6,46,0.00,CLR,SCT,0.00,WeatherDisplay:10.37,2013-07-10 10:15:00,
2013-07-10 03:20:00,61.9,40.9,30.02,North,0,3.5,3.5,46,0.00,CLR,SCT,0.00,WeatherDisplay:10.37,2013-07-10 10:20:00,
2013-07-10 03:21:00,61.9,40.9,30.02,North,0,3.5,3.5,46,0.00,CLR,SCT,0.00,WeatherDisplay:10.37,2013-07-10 10:21:00,
2013-07-10 03:26:00,61.7,40.7,30.02,SW,214,3.5,4.0,46,0.00,CLR,SCT,0.00,WeatherDisplay:10.37,2013-07-10 10:26:00,
2013-07-10 03:31:00,61.5,40.5,29.99,SW,214,3.5,4.0,46,0.00,CLR,SCT,0.00,WeatherDisplay:10.37,2013-07-10 10:31:00,
2013-07-10 03:36:00,61.3,40.9,29.99,SW,214,3.5,3.5,47,0.00,CLR,SCT,0.00,WeatherDisplay:10.37,2013-07-10 10:36:00,
2013-07-10 03:41:00,61.3,40.4,30.02,SW,214,0.0,0.0,46,0.00,CLR,SCT,0.00,WeatherDisplay:10.37,2013-07-10 10:41:00,
2013-07-10 03:46:00,61.2,39.6,30.02,SW,214,0.0,0.0,45,0.00,CLR,SCT,0.00,WeatherDisplay:10.37,2013-07-10 10:46:00,
2013-07-10 03:52:00,60.8,39.3,30.02,SW,214,0.0,0.0,45,0.00,CLR,SCT,0.00,WeatherDisplay:10.37,2013-07-10 10:52:00,
2013-07-10 03:57:00,60.6,39.7,29.99,SW,214,0.0,0.0,46,0.00,CLR,SCT,0.00,WeatherDisplay:10.37,2013-07-10 10:57:00,
2013-07-10 04:02:00,60.6,39.7,29.99,SW,214,0.0,0.0,46,0.00,CLR,SCT,0.00,WeatherDisplay:10.37,2013-07-10 11:02:00,
2013-07-10 04:07:00,60.6,39.7,29.99,SSW,205,3.5,3.5,46,0.00,CLR,SCT,0.00,WeatherDisplay:10.37,2013-07-10 11:07:00,
2013-07-10 04:12:00,60.8,39.9,29.99,SSW,205,2.3,2.3,46,0.00,CLR,SCT,0.00,WeatherDisplay:10.37,2013-07-10 11:12:00,
2013-07-10 04:17:00,60.6,39.7,29.99,SSW,205,3.5,3.5,46,0.00,CLR,SCT,0.00,WeatherDisplay:10.37,2013-07-10 11:17:00,
2013-07-10 04:22:00,60.4,39.5,29.99,SSW,205,3.5,3.5,46,0.00,CLR,SCT,0.00,WeatherDisplay:10.37,2013-07-10 11:22:00,
2013-07-10 04:27:00,60.1,39.8,30.02,SSW,205,0.0,0.0,47,0.00,CLR,SCT,0.00,WeatherDisplay:10.37,2013-07-10 11:27:00,
2013-07-10 04:32:00,59.9,39.1,30.02,SSW,205,0.0,0.0,46,0.00,CLR,SCT,0.00,WeatherDisplay:10.37,2013-07-10 11:32:00,
2013-07-10 04:37:00,59.5,39.3,30.02,SSW,205,3.0,4.0,47,0.00,CLR,SCT,0.00,WeatherDisplay:10.37,2013-07-10 11:37:00,
2013-07-10 04:43:00,59.2,39.5,30.02,SSW,205,2.3,2.7,48,0.00,CLR,SCT,0.00,WeatherDisplay:10.37,2013-07-10 11:43:00,
2013-07-10 04:48:00,59.2,40.0,30.02,SSW,205,0.0,0.0,49,0.00,CLR,SCT,0.00,WeatherDisplay:10.37,2013-07-10 11:48:00,
2013-07-10 04:53:00,59.2,40.0,30.02,SSW,205,0.0,0.0,49,0.00,CLR,SCT,0.00,WeatherDisplay:10.37,2013-07-10 11:53:00,
2013-07-10 04:58:00,59.4,40.7,30.02,SSW,205,0.0,0.0,50,0.00,CLR,SCT,0.00,WeatherDisplay:10.37,2013-07-10 11:58:00,
2013-07-10 05:04:00,59.2,39.5,30.02,SSW,205,0.0,0.0,48,0.00,CLR,SCT,0.00,WeatherDisplay:10.37,2013-07-10 12:04:00,
2013-07-10 05:09:00,58.8,39.7,30.02,SSW,205,3.5,3.5,49,0.00,CLR,SCT,0.00,WeatherDisplay:10.37,2013-07-10 12:09:00,
2013-07-10 05:14:00,58.6,39.5,30.02,SSW,205,2.3,2.7,49,0.00,CLR,SCT,0.00,WeatherDisplay:10.37,2013-07-10 12:14:00,
2013-07-10 05:19:00,58.1,39.0,30.02,SSW,205,3.5,3.5,49,0.00,CLR,SCT,0.00,WeatherDisplay:10.37,2013-07-10 12:19:00,
2013-07-10 05:24:00,57.9,39.9,30.02,SSW,205,0.0,0.0,51,0.00,CLR,SCT,0.00,WeatherDisplay:10.37,2013-07-10 12:24:00,
2013-07-10 05:29:00,57.9,39.4,30.02,SSW,205,0.0,0.0,50,0.00,CLR,SCT,0.00,WeatherDisplay:10.37,2013-07-10 12:29:00,
2013-07-10 05:34:00,57.6,39.0,30.02,SSW,205,0.0,0.0,50,0.00,CLR,SCT,0.00,WeatherDisplay:10.37,2013-07-10 12:34:00,
2013-07-10 05:39:00,57.4,39.4,30.02,SSW,205,0.0,0.0,51,0.00,CLR,SCT,0.00,WeatherDisplay:10.37,2013-07-10 12:39:00,
2013-07-10 05:45:00,57.4,39.9,30.02,SSW,205,0.0,0.0,52,0.00,CLR,SCT,0.00,WeatherDisplay:10.37,2013-07-10 12:45:00,
2013-07-10 05:50:00,57.4,39.9,30.02,SSW,205,0.0,0.0,52,0.00,CLR,SCT,0.00,WeatherDisplay:10.37,2013-07-10 12:50:00,
2013-07-10 05:55:00,57.0,39.6,30.02,SSW,205,0.0,0.0,52,0.00,CLR,SCT,0.00,WeatherDisplay:10.37,2013-07-10 12:55:00,
2013-07-10 06:00:00,56.7,38.7,29.99,North,0,0.0,0.0,51,0.00,CLR,SCT,0.00,WeatherDisplay:10.37,2013-07-10 13:00:00,
2013-07-10 06:05:00,56.3,38.9,29.99,North,0,3.6,3.6,52,0.00,CLR,SCT,0.00,WeatherDisplay:10.37,2013-07-10 13:05:00,
2013-07-10 06:10:00,56.3,39.4,30.02,North,0,4.0,4.0,53,0.00,CLR,SCT,0.00,WeatherDisplay:10.37,2013-07-10 13:10:00,
2013-07-10 06:15:00,56.5,39.5,30.02,North,0,3.5,3.5,53,0.00,CLR,SCT,0.00,WeatherDisplay:10.37,2013-07-10 13:15:00,
2013-07-10 06:21:00,56.7,41.1,30.02,North,0,3.5,3.5,56,0.00,CLR,SCT,0.00,WeatherDisplay:10.37,2013-07-10 13:21:00,
2013-07-10 06:26:00,56.8,40.8,29.99,North,0,0.0,0.0,55,0.00,CLR,SCT,0.00,WeatherDisplay:10.37,2013-07-10 13:26:00,
2013-07-10 06:31:00,56.7,39.7,29.99,North,0,0.0,0.0,53,0.00,CLR,SCT,0.00,WeatherDisplay:10.37,2013-07-10 13:31:00,
2013-07-10 06:36:00,56.7,39.7,29.99,North,0,0.0,0.0,53,0.00,CLR,SCT,0.00,WeatherDisplay:10.37,2013-07-10 13:36:00,
2013-07-10 06:41:00,56.5,40.0,30.02,North,0,0.0,0.0,54,0.00,CLR,SCT,0.00,WeatherDisplay:10.37,2013-07-10 13:41:00,
2013-07-10 06:46:00,56.3,40.3,30.02,North,0,0.0,0.0,55,0.00,CLR,SCT,0.00,WeatherDisplay:10.37,2013-07-10 13:46:00,
2013-07-10 06:51:00,56.3,40.3,30.02,North,0,0.0,0.0,55,0.00,CLR,SCT,0.00,WeatherDisplay:10.37,2013-07-10 13:51:00,
2013-07-10 06:56:00,56.3,39.9,30.02,North,0,0.0,0.0,54,0.00,CLR,SCT,0.00,WeatherDisplay:10.37,2013-07-10 13:56:00,
2013-07-10 07:01:00,56.5,40.0,30.02,North,0,0.0,0.0,54,0.00,CLR,SCT,0.00,WeatherDisplay:10.37,2013-07-10 14:01:00,
2013-07-10 07:06:00,56.7,41.1,30.02,North,0,0.0,0.0,56,0.00,CLR,SCT,0.00,WeatherDisplay:10.37,2013-07-10 14:06:00,
2013-07-10 07:11:00,57.0,41.5,30.02,North,0,0.0,0.0,56,0.00,CLR,SCT,0.00,WeatherDisplay:10.37,2013-07-10 14:11:00,
2013-07-10 07:17:00,57.6,41.5,30.02,North,0,0.0,0.0,55,0.00,CLR,SCT,0.00,WeatherDisplay:10.37,2013-07-10 14:17:00,
2013-07-10 07:22:00,57.9,41.4,30.02,North,0,0.0,0.0,54,0.00,CLR,SCT,0.00,WeatherDisplay:10.37,2013-07-10 14:22:00,
2013-07-10 07:27:00,58.5,41.4,29.99,North,0,0.0,0.0,53,0.00,CLR,SCT,0.00,WeatherDisplay:10.37,2013-07-10 14:27:00,
2013-07-10 07:32:00,58.8,41.7,29.99,North,0,0.0,0.0,53,0.00,CLR,SCT,0.00,WeatherDisplay:10.37,2013-07-10 14:32:00,
2013-07-10 07:37:00,59.4,41.8,29.99,North,0,0.0,0.0,52,0.00,CLR,SCT,0.00,WeatherDisplay:10.37,2013-07-10 14:37:00,
2013-07-10 07:43:00,60.1,41.4,29.99,North,0,0.0,0.0,50,0.00,CLR,SCT,0.00,WeatherDisplay:10.37,2013-07-10 14:43:00,
2013-07-10 07:48:00,60.8,41.0,29.99,North,0,0.0,0.0,48,0.00,CLR,SCT,0.00,WeatherDisplay:10.37,2013-07-10 14:48:00,
2013-07-10 07:53:00,61.9,41.4,29.99,North,0,0.0,0.0,47,0.00,CLR,SCT,0.00,WeatherDisplay:10.37,2013-07-10 14:53:00,
2013-07-10 07:58:00,63.1,41.4,30.02,North,0,0.0,0.0,45,0.00,CLR,SCT,0.00,WeatherDisplay:10.37,2013-07-10 14:58:00,
2013-07-10 08:03:00,64.0,41.7,30.02,North,0,0.0,0.0,44,0.00,CLR,SCT,0.00,WeatherDisplay:10.37,2013-07-10 15:03:00,
2013-07-10 08:08:00,64.9,41.3,30.02,North,0,0.0,0.0,42,0.00,CLR,SCT,0.00,WeatherDisplay:10.37,2013-07-10 15:08:00,
2013-07-10 08:13:00,65.8,41.5,30.02,North,0,0.0,0.0,41,0.00,CLR,SCT,0.00,WeatherDisplay:10.37,2013-07-10 15:13:00,
2013-07-10 08:18:00,66.6,40.8,30.02,North,0,0.0,0.0,39,0.00,CLR,SCT,0.00,WeatherDisplay:10.37,2013-07-10 15:18:00,
2013-07-10 08:23:00,67.3,41.5,30.02,North,0,3.5,3.5,39,0.00,CLR,SCT,0.00,WeatherDisplay:10.37,2013-07-10 15:23:00,
2013-07-10 08:28:00,68.0,40.7,30.02,North,0,0.0,0.0,37,0.00,CLR,SCT,0.00,WeatherDisplay:10.37,2013-07-10 15:28:00,
2013-07-10 08:33:00,68.5,41.2,30.02,NNE,15,3.5,3.5,37,0.00,CLR,SCT,0.00,WeatherDisplay:10.37,2013-07-10 15:33:00,
2013-07-10 08:39:00,69.1,41.7,30.02,NNE,13,0.0,0.0,37,0.00,CLR,SCT,0.00,WeatherDisplay:10.37,2013-07-10 15:39:00,
2013-07-10 08:44:00,69.8,41.6,30.02,NNE,14,0.0,0.0,36,0.00,CLR,SCT,0.00,WeatherDisplay:10.37,2013-07-10 15:44:00,
2013-07-10 08:49:00,70.7,41.7,30.02,NNE,19,3.5,3.5,35,0.00,CLR,SCT,0.00,WeatherDisplay:10.37,2013-07-10 15:49:00,
2013-07-10 08:54:00,71.8,41.9,30.02,ENE,62,3.5,3.5,34,0.00,CLR,SCT,0.00,WeatherDisplay:10.37,2013-07-10 15:54:00,
2013-07-10 08:59:00,72.3,42.4,30.02,ENE,66,0.0,0.0,34,0.00,CLR,SCT,0.00,WeatherDisplay:10.37,2013-07-10 15:59:00,
2013-07-10 09:04:00,73.0,42.2,30.02,ENE,71,0.0,0.0,33,0.00,CLR,SCT,0.00,WeatherDisplay:10.37,2013-07-10 16:04:00,
2013-07-10 09:10:00,73.8,42.9,30.02,ENE,70,3.5,3.5,33,0.00,CLR,SCT,0.00,WeatherDisplay:10.37,2013-07-10 16:10:00,
2013-07-10 09:15:00,74.5,43.5,30.02,ENE,65,2.3,0.0,33,0.00,CLR,SCT,0.00,WeatherDisplay:10.37,2013-07-10 16:15:00,
2013-07-10 09:20:00,75.0,44.0,30.02,ENE,70,0.0,0.0,33,0.00,CLR,SCT,0.00,WeatherDisplay:10.37,2013-07-10 16:20:00,
2013-07-10 09:25:00,75.2,43.3,30.02,SE,133,2.3,0.0,32,0.00,CLR,SCT,0.00,WeatherDisplay:10.37,2013-07-10 16:25:00,
2013-07-10 09:30:00,75.6,43.6,30.02,SE,141,3.5,3.5,32,0.00,CLR,SCT,0.00,WeatherDisplay:10.37,2013-07-10 16:30:00,
2013-07-10 09:35:00,76.3,44.2,30.02,SSW,204,3.5,3.5,32,0.00,CLR,SCT,0.00,WeatherDisplay:10.37,2013-07-10 16:35:00,
2013-07-10 09:40:00,76.8,44.7,30.02,West,267,3.6,3.6,32,0.00,CLR,SCT,0.00,WeatherDisplay:10.37,2013-07-10 16:40:00,
2013-07-10 09:45:00,77.5,44.5,30.02,WNW,286,3.5,3.5,31,0.00,CLR,SCT,0.00,WeatherDisplay:10.37,2013-07-10 16:45:00,
2013-07-10 09:50:00,78.4,45.3,30.02,North,0,3.5,4.0,31,0.00,CLR,SCT,0.00,WeatherDisplay:10.37,2013-07-10 16:50:00,
2013-07-10 09:55:00,79.0,45.8,30.02,North,0,4.6,4.6,31,0.00,CLR,SCT,0.00,WeatherDisplay:10.37,2013-07-10 16:55:00,
2013-07-10 10:00:00,79.9,46.5,29.99,North,0,3.5,3.5,31,0.00,CLR,SCT,0.00,WeatherDisplay:10.37,2013-07-10 17:00:00,
2013-07-10 10:06:00,80.4,47.0,29.99,North,0,4.6,4.6,31,0.00,CLR,SCT,0.00,WeatherDisplay:10.37,2013-07-10 17:06:00,
2013-07-10 10:11:00,81.0,46.6,29.99,SW,224,2.3,0.0,30,0.00,CLR,SCT,0.00,WeatherDisplay:10.37,2013-07-10 17:11:00,
2013-07-10 10:16:00,81.5,47.1,29.99,North,0,0.0,0.0,30,0.00,CLR,SCT,0.00,WeatherDisplay:10.37,2013-07-10 17:16:00,
2013-07-10 10:21:00,82.4,47.8,29.99,NNE,16,4.0,4.0,30,0.00,CLR,SCT,0.00,WeatherDisplay:10.37,2013-07-10 17:21:00,
2013-07-10 10:26:00,83.1,48.5,29.99,NNE,33,3.5,0.0,30,0.00,CLR,SCT,0.00,WeatherDisplay:10.37,2013-07-10 17:26:00,
2013-07-10 10:31:00,83.8,49.1,29.99,NNE,31,3.5,0.0,30,0.00,CLR,SCT,0.00,WeatherDisplay:10.37,2013-07-10 17:31:00,
2013-07-10 10:37:00,84.6,48.8,29.99,NE,45,3.5,3.5,29,0.00,CLR,SCT,0.00,WeatherDisplay:10.37,2013-07-10 17:37:00,
2013-07-10 10:42:00,85.3,49.4,29.99,North,0,5.8,5.8,29,0.00,CLR,SCT,0.00,WeatherDisplay:10.37,2013-07-10 17:42:00,
2013-07-10 10:47:00,85.5,49.6,29.99,North,0,5.8,5.8,29,0.00,CLR,SCT,0.00,WeatherDisplay:10.37,2013-07-10 17:47:00,
2013-07-10 10:52:00,86.0,50.0,29.99,North,0,3.5,0.0,29,0.00,CLR,SCT,0.00,WeatherDisplay:10.37,2013-07-10 17:52:00,
2013-07-10 10:57:00,87.1,51.0,29.99,WNW,292,4.6,4.6,29,0.00,CLR,SCT,0.00,WeatherDisplay:10.37,2013-07-10 17:57:00,
2013-07-10 11:02:00,87.3,51.1,29.99,North,0,3.5,3.5,29,0.00,CLR,SCT,0.00,WeatherDisplay:10.37,2013-07-10 18:02:00,
2013-07-10 11:07:00,87.1,51.0,29.99,North,0,5.8,5.8,29,0.00,CLR,SCT,0.00,WeatherDisplay:10.37,2013-07-10 18:07:00,
2013-07-10 11:12:00,87.4,51.3,29.99,NNE,32,5.8,0.0,29,0.00,CLR,SCT,0.00,WeatherDisplay:10.37,2013-07-10 18:12:00,
2013-07-10 11:18:00,88.0,50.8,29.99,East,91,5.8,5.8,28,0.00,CLR,SCT,0.00,WeatherDisplay:10.37,2013-07-10 18:18:00,
2013-07-10 11:23:00,89.2,51.9,29.99,North,0,5.8,5.8,28,0.00,CLR,SCT,0.00,WeatherDisplay:10.37,2013-07-10 18:23:00,
2013-07-10 11:28:00,90.0,52.5,29.99,North,0,5.8,5.8,28,0.00,CLR,SCT,0.00,WeatherDisplay:10.37,2013-07-10 18:28:00,
2013-07-10 11:33:00,91.2,53.6,29.99,WSW,252,8.1,8.1,28,0.00,CLR,SCT,0.00,WeatherDisplay:10.37,2013-07-10 18:33:00,
2013-07-10 11:38:00,91.9,53.2,29.99,West,278,6.9,6.9,27,0.00,CLR,SCT,0.00,WeatherDisplay:10.37,2013-07-10 18:38:00,
2013-07-10 11:44:00,91.9,53.2,29.96,North,0,5.8,5.8,27,0.00,CLR,SCT,0.00,WeatherDisplay:10.37,2013-07-10 18:44:00,
2013-07-10 11:49:00,92.1,53.3,29.96,West,271,5.8,6.3,27,0.00,CLR,SCT,0.00,WeatherDisplay:10.37,2013-07-10 18:49:00,
2013-07-10 11:54:00,92.7,53.8,29.96,WSW,243,5.8,5.8,27,0.00,CLR,SCT,0.00,WeatherDisplay:10.37,2013-07-10 18:54:00,
2013-07-10 11:59:00,92.7,53.8,29.96,WSW,257,4.0,0.0,27,0.00,CLR,SCT,0.00,WeatherDisplay:10.37,2013-07-10 18:59:00,
2013-07-10 12:05:00,92.8,53.9,29.96,SW,222,5.8,5.8,27,0.00,CLR,SCT,0.00,WeatherDisplay:10.37,2013-07-10 19:05:00,
2013-07-10 12:10:00,92.7,53.8,29.96,North,0,4.6,4.6,27,0.00,CLR,SCT,0.00,WeatherDisplay:10.37,2013-07-10 19:10:00,
2013-07-10 12:15:00,92.8,53.9,29.96,North,0,3.5,3.5,27,0.00,CLR,SCT,0.00,WeatherDisplay:10.37,2013-07-10 19:15:00,
2013-07-10 12:20:00,93.0,54.1,29.96,ENE,58,5.8,5.8,27,0.00,CLR,SCT,0.00,WeatherDisplay:10.37,2013-07-10 19:20:00,
2013-07-10 12:25:00,93.2,54.3,29.96,NE,53,4.6,4.6,27,0.00,CLR,SCT,0.00,WeatherDisplay:10.37,2013-07-10 19:25:00,
2013-07-10 12:31:00,94.3,55.2,29.96,North,0,5.8,5.8,27,0.00,CLR,SCT,0.00,WeatherDisplay:10.37,2013-07-10 19:31:00,
2013-07-10 12:36:00,94.3,55.2,29.96,NE,48,3.6,3.6,27,0.00,CLR,SCT,0.00,WeatherDisplay:10.37,2013-07-10 19:36:00,
2013-07-10 12:41:00,95.0,55.8,29.96,West,263,4.6,4.6,27,0.00,CLR,SCT,0.00,WeatherDisplay:10.37,2013-07-10 19:41:00,
2013-07-10 12:46:00,95.2,55.9,29.96,North,0,4.6,0.0,27,0.00,CLR,SCT,0.00,WeatherDisplay:10.37,2013-07-10 19:46:00,
2013-07-10 12:51:00,95.2,55.9,29.96,WSW,256,4.9,0.0,27,0.00,CLR,SCT,0.00,WeatherDisplay:10.37,2013-07-10 19:51:00,
2013-07-10 12:56:00,95.4,56.1,29.93,NNE,25,9.2,9.2,27,0.00,CLR,SCT,0.00,WeatherDisplay:10.37,2013-07-10 19:56:00,
2013-07-10 13:01:00,95.9,56.5,29.93,North,0,10.4,10.4,27,0.00,CLR,SCT,0.00,WeatherDisplay:10.37,2013-07-10 20:01:00,
2013-07-10 13:06:00,95.7,56.4,29.93,WNW,287,6.9,6.9,27,0.00,CLR,SCT,0.00,WeatherDisplay:10.37,2013-07-10 20:06:00,
2013-07-10 13:11:00,96.1,56.7,29.93,North,0,0.0,0.0,27,0.00,CLR,SCT,0.00,WeatherDisplay:10.37,2013-07-10 20:11:00,
2013-07-10 13:17:00,96.4,57.0,29.93,North,0,9.2,9.2,27,0.00,CLR,SCT,0.00,WeatherDisplay:10.37,2013-07-10 20:17:00,
2013-07-10 13:22:00,96.4,57.0,29.93,North,9,8.1,8.1,27,0.00,CLR,SCT,0.00,WeatherDisplay:10.37,2013-07-10 20:22:00,
2013-07-10 13:27:00,96.6,57.2,29.93,WSW,245,8.1,8.1,27,0.00,CLR,SCT,0.00,WeatherDisplay:10.37,2013-07-10 20:27:00,
2013-07-10 13:32:00,96.4,57.0,29.93,North,0,5.8,5.8,27,0.00,CLR,SCT,0.00,WeatherDisplay:10.37,2013-07-10 20:32:00,
2013-07-10 13:37:00,96.4,57.0,29.93,WSW,239,8.1,8.1,27,0.00,CLR,SCT,0.00,WeatherDisplay:10.37,2013-07-10 20:37:00,
2013-07-10 13:42:00,96.3,56.8,29.93,West,267,5.8,5.8,27,0.00,CLR,SCT,0.00,WeatherDisplay:10.37,2013-07-10 20:42:00,
2013-07-10 13:47:00,97.0,56.4,29.93,North,0,8.1,8.1,26,0.00,CLR,SCT,0.00,WeatherDisplay:10.37,2013-07-10 20:47:00,
2013-07-10 13:52:00,97.0,56.4,29.93,North,0,9.2,9.2,26,0.00,CLR,SCT,0.00,WeatherDisplay:10.37,2013-07-10 20:52:00,
2013-07-10 13:58:00,97.3,56.7,29.93,NE,50,10.4,10.4,26,0.00,CLR,SCT,0.00,WeatherDisplay:10.37,2013-07-10 20:58:00,
2013-07-10 14:03:00,97.2,56.6,29.93,NNE,20,8.1,8.1,26,0.00,CLR,SCT,0.00,WeatherDisplay:10.37,2013-07-10 21:03:00,
2013-07-10 14:08:00,97.5,56.9,29.93,WSW,246,10.4,10.4,26,0.00,CLR,SCT,0.00,WeatherDisplay:10.37,2013-07-10 21:08:00,
2013-07-10 14:13:00,98.6,57.8,29.93,NE,43,5.8,5.8,26,0.00,CLR,SCT,0.00,WeatherDisplay:10.37,2013-07-10 21:13:00,
2013-07-10 14:18:00,98.8,57.9,29.93,North,0,5.8,5.8,26,0.00,CLR,SCT,0.00,WeatherDisplay:10.37,2013-07-10 21:18:00,
2013-07-10 14:23:00,98.6,57.8,29.93,North,0,9.2,9.2,26,0.00,CLR,SCT,0.00,WeatherDisplay:10.37,2013-07-10 21:23:00,
2013-07-10 14:28:00,98.2,57.5,29.90,North,0,17.0,17.0,26,0.00,CLR,SCT,0.00,WeatherDisplay:10.37,2013-07-10 21:28:00,
2013-07-10 14:33:00,97.9,57.2,29.90,West,265,8.0,8.0,26,0.00,CLR,SCT,0.00,WeatherDisplay:10.37,2013-07-10 21:33:00,
2013-07-10 14:38:00,98.4,57.6,29.90,West,260,7.6,7.6,26,0.00,CLR,SCT,0.00,WeatherDisplay:10.37,2013-07-10 21:38:00,
2013-07-10 14:43:00,99.1,58.2,29.90,North,0,10.4,10.4,26,0.00,CLR,SCT,0.00,WeatherDisplay:10.37,2013-07-10 21:43:00,
2013-07-10 14:48:00,99.1,58.2,29.90,WSW,250,10.4,10.4,26,0.00,CLR,SCT,0.00,WeatherDisplay:10.37,2013-07-10 21:48:00,
2013-07-10 14:53:00,98.6,57.8,29.90,NNE,14,10.4,10.4,26,0.00,CLR,SCT,0.00,WeatherDisplay:10.37,2013-07-10 21:53:00,
2013-07-10 14:59:00,98.1,57.3,29.90,WSW,245,12.7,12.7,26,0.00,CLR,SCT,0.00,WeatherDisplay:10.37,2013-07-10 21:59:00,
2013-07-10 15:04:00,99.0,58.1,29.90,WNW,295,10.4,10.4,26,0.00,CLR,SCT,0.00,WeatherDisplay:10.37,2013-07-10 22:04:00,
2013-07-10 15:09:00,99.1,58.2,29.90,North,11,11.5,11.5,26,0.00,CLR,SCT,0.00,WeatherDisplay:10.37,2013-07-10 22:09:00,
2013-07-10 15:14:00,98.4,57.6,29.90,North,0,13.8,13.8,26,0.00,CLR,SCT,0.00,WeatherDisplay:10.37,2013-07-10 22:14:00,
2013-07-10 15:19:00,98.4,57.6,29.90,SW,236,15.0,15.0,26,0.00,CLR,SCT,0.00,WeatherDisplay:10.37,2013-07-10 22:19:00,
2013-07-10 15:25:00,99.3,58.4,29.90,WSW,255,11.5,11.5,26,0.00,CLR,SCT,0.00,WeatherDisplay:10.37,2013-07-10 22:25:00,
2013-07-10 15:30:00,99.3,58.4,29.90,WSW,253,17.3,17.3,26,0.00,CLR,SCT,0.00,WeatherDisplay:10.37,2013-07-10 22:30:00,
2013-07-10 15:35:00,99.1,58.2,29.90,West,271,10.4,10.4,26,0.00,CLR,SCT,0.00,WeatherDisplay:10.37,2013-07-10 22:35:00,
2013-07-10 15:40:00,99.1,58.2,29.90,WSW,256,15.0,15.0,26,0.00,CLR,SCT,0.00,WeatherDisplay:10.37,2013-07-10 22:40:00,
2013-07-10 15:45:00,99.3,58.4,29.90,West,261,12.7,12.7,26,0.00,CLR,SCT,0.00,WeatherDisplay:10.37,2013-07-10 22:45:00,
2013-07-10 15:50:00,99.0,58.1,29.90,WNW,293,11.5,11.5,26,0.00,CLR,SCT,0.00,WeatherDisplay:10.37,2013-07-10 22:50:00,
2013-07-10 15:55:00,99.1,58.2,29.90,West,270,15.0,15.0,26,0.00,CLR,SCT,0.00,WeatherDisplay:10.37,2013-07-10 22:55:00,
2013-07-10 16:00:00,98.8,57.9,29.90,WNW,284,15.0,15.0,26,0.00,CLR,SCT,0.00,WeatherDisplay:10.37,2013-07-10 23:00:00,
2013-07-10 16:06:00,98.6,57.8,29.90,West,280,17.3,17.3,26,0.00,CLR,SCT,0.00,WeatherDisplay:10.37,2013-07-10 23:06:00,
2013-07-10 16:11:00,98.2,57.5,29.90,WNW,284,15.0,15.0,26,0.00,CLR,SCT,0.00,WeatherDisplay:10.37,2013-07-10 23:11:00,
2013-07-10 16:16:00,98.1,57.3,29.90,West,272,10.4,10.4,26,0.00,CLR,SCT,0.00,WeatherDisplay:10.37,2013-07-10 23:16:00,
2013-07-10 16:21:00,98.6,57.8,29.90,North,0,12.7,12.7,26,0.00,CLR,SCT,0.00,WeatherDisplay:10.37,2013-07-10 23:21:00,
2013-07-10 16:26:00,98.4,57.6,29.87,WSW,258,12.7,12.7,26,0.00,CLR,SCT,0.00,WeatherDisplay:10.37,2013-07-10 23:26:00,
2013-07-10 16:31:00,98.6,57.8,29.87,North,0,15.0,15.0,26,0.00,CLR,SCT,0.00,WeatherDisplay:10.37,2013-07-10 23:31:00,
2013-07-10 16:36:00,98.2,57.5,29.87,West,260,15.0,15.0,26,0.00,CLR,SCT,0.00,WeatherDisplay:10.37,2013-07-10 23:36:00,
2013-07-10 16:41:00,98.4,57.6,29.87,West,277,15.0,15.0,26,0.00,CLR,SCT,0.00,WeatherDisplay:10.37,2013-07-10 23:41:00,
2013-07-10 16:46:00,97.9,57.2,29.87,WSW,256,11.5,11.5,26,0.00,CLR,SCT,0.00,WeatherDisplay:10.37,2013-07-10 23:46:00,
2013-07-10 16:51:00,97.7,57.0,29.87,West,278,15.0,15.0,26,0.00,CLR,SCT,0.00,WeatherDisplay:10.37,2013-07-10 23:51:00,
2013-07-10 16:57:00,97.5,56.9,29.87,West,267,17.3,17.3,26,0.00,CLR,SCT,0.00,WeatherDisplay:10.37,2013-07-10 23:57:00,
2013-07-10 17:02:00,97.5,56.9,29.87,WSW,257,15.0,15.0,26,0.00,CLR,SCT,0.00,WeatherDisplay:10.37,2013-07-11 00:02:00,
2013-07-10 17:07:00,97.3,56.7,29.87,North,0,10.4,10.4,26,0.00,CLR,SCT,0.00,WeatherDisplay:10.37,2013-07-11 00:07:00,
2013-07-10 17:12:00,97.0,56.4,29.87,West,264,15.0,15.0,26,0.00,CLR,SCT,0.00,WeatherDisplay:10.37,2013-07-11 00:12:00,
2013-07-10 17:17:00,96.1,56.7,29.87,SW,233,15.0,15.0,27,0.00,CLR,SCT,0.00,WeatherDisplay:10.37,2013-07-11 00:17:00,
2013-07-10 17:23:00,96.1,56.7,29.87,WSW,237,17.3,17.3,27,0.00,CLR,SCT,0.00,WeatherDisplay:10.37,2013-07-11 00:23:00,
2013-07-10 17:28:00,95.9,56.5,29.87,West,279,15.0,15.0,27,0.00,CLR,SCT,0.00,WeatherDisplay:10.37,2013-07-11 00:28:00,
2013-07-10 17:33:00,95.4,56.1,29.87,West,278,17.3,17.3,27,0.00,CLR,SCT,0.00,WeatherDisplay:10.37,2013-07-11 00:33:00,
2013-07-10 17:38:00,95.2,55.9,29.87,North,2,12.7,12.7,27,0.00,CLR,SCT,0.00,WeatherDisplay:10.37,2013-07-11 00:38:00,
2013-07-10 17:43:00,94.8,55.6,29.87,WSW,253,11.5,11.5,27,0.00,CLR,SCT,0.00,WeatherDisplay:10.37,2013-07-11 00:43:00,
2013-07-10 17:48:00,94.5,55.3,29.87,WNW,285,15.0,15.0,27,0.00,CLR,SCT,0.00,WeatherDisplay:10.37,2013-07-11 00:48:00,
2013-07-10 17:53:00,94.5,55.3,29.87,West,276,23.7,23.7,27,0.00,CLR,SCT,0.00,WeatherDisplay:10.37,2013-07-11 00:53:00,
2013-07-10 17:59:00,93.6,54.6,29.87,West,270,15.0,15.0,27,0.00,CLR,SCT,0.00,WeatherDisplay:10.37,2013-07-11 00:59:00,
2013-07-10 18:04:00,93.0,54.1,29.87,West,267,12.7,12.7,27,0.00,CLR,SCT,0.00,WeatherDisplay:10.37,2013-07-11 01:04:00,
2013-07-10 18:09:00,92.1,53.3,29.87,West,279,18.4,18.4,27,0.00,CLR,SCT,0.00,WeatherDisplay:10.37,2013-07-11 01:09:00,
2013-07-10 18:14:00,91.6,52.9,29.87,North,0,17.3,17.3,27,0.00,CLR,SCT,0.00,WeatherDisplay:10.37,2013-07-11 01:14:00,
2013-07-10 18:19:00,91.2,53.6,29.87,West,280,23.0,23.0,28,0.00,CLR,SCT,0.00,WeatherDisplay:10.37,2013-07-11 01:19:00,
2013-07-10 18:24:00,90.9,53.3,29.87,North,0,12.7,12.7,28,0.00,CLR,SCT,0.00,WeatherDisplay:10.37,2013-07-11 01:24:00,
2013-07-10 18:29:00,90.5,52.9,29.87,West,280,13.8,13.8,28,0.00,CLR,SCT,0.00,WeatherDisplay:10.37,2013-07-11 01:29:00,
2013-07-10 18:34:00,90.0,52.5,29.87,North,0,19.6,19.6,28,0.00,CLR,SCT,0.00,WeatherDisplay:10.37,2013-07-11 01:34:00,
2013-07-10 18:40:00,89.6,52.2,29.87,WNW,285,16.1,16.1,28,0.00,CLR,SCT,0.00,WeatherDisplay:10.37,2013-07-11 01:40:00,
2013-07-10 18:45:00,89.6,52.2,29.87,West,280,10.4,10.9,28,0.00,CLR,SCT,0.00,WeatherDisplay:10.37,2013-07-11 01:45:00,
2013-07-10 18:50:00,89.2,51.9,29.87,North,0,17.3,17.3,28,0.00,CLR,SCT,0.00,WeatherDisplay:10.37,2013-07-11 01:50:00,
2013-07-10 18:55:00,89.2,51.9,29.87,West,271,19.7,19.7,28,0.00,CLR,SCT,0.00,WeatherDisplay:10.37,2013-07-11 01:55:00,
2013-07-10 19:00:00,88.7,51.4,29.87,WNW,282,11.5,12.3,28,0.00,CLR,SCT,0.00,WeatherDisplay:10.37,2013-07-11 02:00:00,
2013-07-10 19:05:00,88.2,50.9,29.87,WNW,285,17.3,17.3,28,0.00,CLR,SCT,0.00,WeatherDisplay:10.37,2013-07-11 02:05:00,
2013-07-10 19:10:00,87.6,51.4,29.87,WSW,254,15.0,15.0,29,0.00,CLR,SCT,0.00,WeatherDisplay:10.37,2013-07-11 02:10:00,
2013-07-10 19:16:00,87.1,51.0,29.87,North,0,15.0,15.0,29,0.00,CLR,SCT,0.00,WeatherDisplay:10.37,2013-07-11 02:16:00,
2013-07-10 19:21:00,86.7,50.7,29.87,North,0,17.3,17.3,29,0.00,CLR,SCT,0.00,WeatherDisplay:10.37,2013-07-11 02:21:00,
2013-07-10 19:26:00,86.5,50.5,29.87,North,0,15.0,15.0,29,0.00,CLR,SCT,0.00,WeatherDisplay:10.37,2013-07-11 02:26:00,
2013-07-10 19:31:00,86.4,50.3,29.87,WNW,289,14.5,14.5,29,0.00,CLR,SCT,0.00,WeatherDisplay:10.37,2013-07-11 02:31:00,
2013-07-10 19:36:00,85.8,49.9,29.87,North,0,15.0,15.0,29,0.00,CLR,SCT,0.00,WeatherDisplay:10.37,2013-07-11 02:36:00,
2013-07-10 19:41:00,85.6,49.7,29.87,WSW,246,12.7,12.7,29,0.00,CLR,SCT,0.00,WeatherDisplay:10.37,2013-07-11 02:41:00,
2013-07-10 19:46:00,85.3,49.4,29.87,North,0,15.0,15.0,29,0.00,CLR,SCT,0.00,WeatherDisplay:10.37,2013-07-11 02:46:00,
2013-07-10 19:51:00,85.1,49.3,29.87,WNW,286,15.0,15.0,29,0.00,CLR,SCT,0.00,WeatherDisplay:10.37,2013-07-11 02:51:00,
2013-07-10 19:56:00,84.4,48.6,29.87,West,261,11.5,11.5,29,0.00,CLR,SCT,0.00,WeatherDisplay:10.37,2013-07-11 02:56:00,
2013-07-10 20:01:00,84.2,48.5,29.87,North,0,15.0,15.0,29,0.00,CLR,SCT,0.00,WeatherDisplay:10.37,2013-07-11 03:01:00,
2013-07-10 20:06:00,83.8,48.2,29.87,WSW,250,10.9,10.9,29,0.00,CLR,SCT,0.00,WeatherDisplay:10.37,2013-07-11 03:06:00,
2013-07-10 20:11:00,83.7,48.0,29.87,West,266,12.7,12.7,29,0.00,CLR,SCT,0.00,WeatherDisplay:10.37,2013-07-11 03:11:00,
2013-07-10 20:17:00,83.3,47.7,29.87,WSW,239,16.1,16.1,29,0.00,CLR,SCT,0.00,WeatherDisplay:10.37,2013-07-11 03:17:00,
2013-07-10 20:22:00,82.9,47.4,29.87,WSW,254,12.7,12.7,29,0.00,CLR,SCT,0.00,WeatherDisplay:10.37,2013-07-11 03:22:00,
2013-07-10 20:27:00,82.6,47.1,29.87,West,276,12.7,12.7,29,0.00,CLR,SCT,0.00,WeatherDisplay:10.37,2013-07-11 03:27:00,
2013-07-10 20:32:00,82.0,47.5,29.87,North,0,20.7,20.7,30,0.00,CLR,SCT,0.00,WeatherDisplay:10.37,2013-07-11 03:32:00,
2013-07-10 20:37:00,81.7,47.2,29.87,WNW,283,17.3,17.3,30,0.00,CLR,SCT,0.00,WeatherDisplay:10.37,2013-07-11 03:37:00,
2013-07-10 20:42:00,81.3,46.9,29.87,West,265,15.4,15.4,30,0.00,CLR,SCT,0.00,WeatherDisplay:10.37,2013-07-11 03:42:00,
2013-07-10 20:47:00,81.0,46.6,29.87,West,265,12.7,12.7,30,0.00,CLR,SCT,0.00,WeatherDisplay:10.37,2013-07-11 03:47:00,
2013-07-10 20:52:00,80.4,46.1,29.87,WNW,289,13.8,13.8,30,0.00,CLR,SCT,0.00,WeatherDisplay:10.37,2013-07-11 03:52:00,
2013-07-10 20:57:00,80.2,46.0,29.87,North,0,13.8,13.8,30,0.00,CLR,SCT,0.00,WeatherDisplay:10.37,2013-07-11 03:57:00,
2013-07-10 21:01:00,80.1,45.8,29.87,North,0,11.5,11.5,30,0.00,CLR,SCT,0.00,WeatherDisplay:10.37,2013-07-11 04:01:00,
2013-07-10 21:02:00,79.9,45.7,29.87,West,268,15.0,15.0,30,0.00,CLR,SCT,0.00,WeatherDisplay:10.37,2013-07-11 04:02:00,
2013-07-10 21:07:00,79.7,45.5,29.87,North,0,10.4,10.4,30,0.00,CLR,SCT,0.00,WeatherDisplay:10.37,2013-07-11 04:07:00,
2013-07-10 21:12:00,79.3,45.2,29.87,North,0,12.7,12.7,30,0.00,CLR,SCT,0.00,WeatherDisplay:10.37,2013-07-11 04:12:00,
2013-07-10 21:17:00,79.2,45.0,29.87,North,0,9.2,9.2,30,0.00,CLR,SCT,0.00,WeatherDisplay:10.37,2013-07-11 04:17:00,
2013-07-10 21:22:00,78.8,44.7,29.87,North,0,12.7,12.7,30,0.00,CLR,SCT,0.00,WeatherDisplay:10.37,2013-07-11 04:22:00,
2013-07-10 21:28:00,78.4,45.3,29.87,North,0,12.7,12.7,31,0.00,CLR,SCT,0.00,WeatherDisplay:10.37,2013-07-11 04:28:00,
2013-07-10 21:33:00,78.1,45.0,29.87,North,0,11.5,11.5,31,0.00,CLR,SCT,0.00,WeatherDisplay:10.37,2013-07-11 04:33:00,
2013-07-10 21:38:00,77.7,44.7,29.87,North,0,12.7,12.7,31,0.00,CLR,SCT,0.00,WeatherDisplay:10.37,2013-07-11 04:38:00,
2013-07-10 21:43:00,77.5,44.5,29.87,North,0,10.4,10.4,31,0.00,CLR,SCT,0.00,WeatherDisplay:10.37,2013-07-11 04:43:00,
2013-07-10 21:48:00,77.2,44.2,29.87,West,269,9.2,9.2,31,0.00,CLR,SCT,0.00,WeatherDisplay:10.37,2013-07-11 04:48:00,
2013-07-10 21:53:00,77.0,44.0,29.87,WNW,287,8.7,8.7,31,0.00,CLR,SCT,0.00,WeatherDisplay:10.37,2013-07-11 04:53:00,
2013-07-10 21:58:00,76.8,43.9,29.87,WNW,287,10.4,10.4,31,0.00,CLR,SCT,0.00,WeatherDisplay:10.37,2013-07-11 04:58:00,
2013-07-10 22:03:00,76.5,43.6,29.87,North,0,12.7,12.7,31,0.00,CLR,SCT,0.00,WeatherDisplay:10.37,2013-07-11 05:03:00,
2013-07-10 22:09:00,76.1,43.3,29.87,North,0,8.1,8.1,31,0.00,CLR,SCT,0.00,WeatherDisplay:10.37,2013-07-11 05:09:00,
2013-07-10 22:14:00,75.7,42.9,29.90,North,0,11.5,11.5,31,0.00,CLR,SCT,0.00,WeatherDisplay:10.37,2013-07-11 05:14:00,
2013-07-10 22:19:00,75.4,42.6,29.90,North,0,8.1,8.1,31,0.00,CLR,SCT,0.00,WeatherDisplay:10.37,2013-07-11 05:19:00,
2013-07-10 22:24:00,74.8,42.2,29.90,WNW,291,11.5,11.5,31,0.00,CLR,SCT,0.00,WeatherDisplay:10.37,2013-07-11 05:24:00,
2013-07-10 22:29:00,74.5,41.9,29.87,North,0,12.7,12.7,31,0.00,CLR,SCT,0.00,WeatherDisplay:10.37,2013-07-11 05:29:00,
2013-07-10 22:35:00,74.3,41.7,29.87,North,0,11.5,11.5,31,0.00,CLR,SCT,0.00,WeatherDisplay:10.37,2013-07-11 05:35:00,
2013-07-10 22:40:00,73.9,41.4,29.90,North,0,11.5,11.5,31,0.00,CLR,SCT,0.00,WeatherDisplay:10.37,2013-07-11 05:40:00,
2013-07-10 22:45:00,73.8,41.2,29.90,North,0,12.7,12.7,31,0.00,CLR,SCT,0.00,WeatherDisplay:10.37,2013-07-11 05:45:00,
2013-07-10 22:50:00,73.4,40.9,29.90,North,0,12.7,12.7,31,0.00,CLR,SCT,0.00,WeatherDisplay:10.37,2013-07-11 05:50:00,
2013-07-10 22:55:00,73.4,40.9,29.90,North,0,12.7,12.7,31,0.00,CLR,SCT,0.00,WeatherDisplay:10.37,2013-07-11 05:55:00,
2013-07-10 23:01:00,73.4,40.9,29.90,North,0,10.4,10.4,31,0.00,CLR,SCT,0.00,WeatherDisplay:10.37,2013-07-11 06:01:00,
2013-07-10 23:06:00,72.7,41.1,29.90,North,0,11.5,11.5,32,0.00,CLR,SCT,0.00,WeatherDisplay:10.37,2013-07-11 06:06:00,
2013-07-10 23:11:00,72.1,40.6,29.90,North,0,8.1,8.1,32,0.00,CLR,SCT,0.00,WeatherDisplay:10.37,2013-07-11 06:11:00,
2013-07-10 23:17:00,71.6,40.2,29.90,North,0,9.2,9.2,32,0.00,CLR,SCT,0.00,WeatherDisplay:10.37,2013-07-11 06:17:00,
2013-07-10 23:22:00,71.1,39.7,29.90,NNE,18,11.5,11.5,32,0.00,CLR,SCT,0.00,WeatherDisplay:10.37,2013-07-11 06:22:00,
2013-07-10 23:27:00,70.9,39.5,29.90,North,0,11.5,11.5,32,0.00,CLR,SCT,0.00,WeatherDisplay:10.37,2013-07-11 06:27:00,
2013-07-10 23:32:00,70.5,39.2,29.90,North,0,9.2,9.2,32,0.00,CLR,SCT,0.00,WeatherDisplay:10.37,2013-07-11 06:32:00,
2013-07-10 23:37:00,70.2,38.9,29.90,North,4,6.0,13.0,32,0.00,CLR,SCT,0.00,WeatherDisplay:10.37,2013-07-11 06:37:00,
2013-07-10 23:42:00,69.8,38.6,29.90,North,0,4.6,4.6,32,0.00,CLR,SCT,0.00,WeatherDisplay:10.37,2013-07-11 06:42:00,
2013-07-10 23:47:00,69.4,39.1,29.90,North,357,5.8,5.8,33,0.00,CLR,SCT,0.00,WeatherDisplay:10.37,2013-07-11 06:47:00,
2013-07-10 23:52:00,69.1,38.8,29.90,North,0,8.1,8.1,33,0.00,CLR,SCT,0.00,WeatherDisplay:10.37,2013-07-11 06:52:00,
2013-07-10 23:57:00,68.7,38.4,29.93,North,0,8.1,8.1,33,0.00,CLR,SCT,0.00,WeatherDisplay:10.37,2013-07-11 06:57:00,